Regional Weather Roundup
Issued by NWS

Home | Current Version | Previous Version | Graphics & Text | Print | Product List | Glossary On
Versions: 1 2 3 4 5 6 7 8 9 10 11 12 13 14 15 16 17 18 19 20 21 22 23 24 25 26 27 28 29 30 31 32 33 34 35 36 37 38 39 40 41 42 43 44 45 46 47 48 49 50
000
ASUS45 KCYS 280710
RWRWY

WYOMING REGIONAL WEATHER ROUNDUP
NATIONAL WEATHER SERVICE CHEYENNE WY
100 AM MDT TUE APR 28 2015

NOTE:  "FAIR" INDICATES FEW OR NO CLOUDS BELOW 12,000 FEET
WITH NO SIGNIFICANT WEATHER AND/OR OBSTRUCTIONS TO VISIBILITY.

WYZ001-280800-
YELLOWSTONE NATIONAL PARK

CITY           SKY/WX    TMP DP  RH WIND       PRES   REMARKS
LK YELLOWSTONE   N/A     27  22  81 CALM      30.38R
W YELLOWSTONE  NOT AVBL

$$
WYZ002>013-054>058-071-098>099-280800-
NORTHERN WYOMING

CITY           SKY/WX    TMP DP  RH WIND       PRES   REMARKS
JACKSON        FAIR      34  30  86 N10       30.33R WCI  26
CODY           FAIR      41  36  81 CALM      30.31S
GREYBULL       FAIR      43  35  73 SE5       30.31S
WORLAND        FAIR      43  36  76 SE9       30.31S
SHERIDAN       FAIR      33  30  88 CALM      30.31S
BUFFALO        FAIR      37  31  78 W7        30.32S WCI  32
GILLETTE       FAIR      37  32  82 S3        30.32S
HULETT         FAIR      32  32 100 S6        30.34S WCI  26
NEWCASTLE      FAIR      37  37 100 CALM      30.35R

$$
WYZ014>020-022>026-101>103-280800-
CENTRAL WYOMING

CITY           SKY/WX    TMP DP  RH WIND       PRES   REMARKS
BIG PINEY      FAIR      36  31  82 CALM      30.35R
PINEDALE       CLOUDY    39  37  93 CALM      30.35S
DUBOIS         PTSUNNY   36  32  87 CALM      30.35S
LANDER         FAIR      36  32  85 S3        30.33S
RIVERTON       CLOUDY    42  34  73 NE3       30.35R
CASPER         CLOUDY    42  37  82 E3        30.35S
DOUGLAS        CLOUDY    44  38  79 CALM      30.36S

$$
WYZ021-027>030-104>119-280800-
SOUTHERN WYOMING

CITY           SKY/WX    TMP DP  RH WIND       PRES   REMARKS
EVANSTON       FAIR      40  29  64 E5        30.31S
KEMMERER       FAIR      37  32  81 CALM      30.34R
FORT BRIDGER   SUNNY     39  32  75 S9        30.35R WCI  33
ROCK SPRINGS   FAIR      37  32  82 E6        30.35R WCI  32
DIXON          FAIR      37  33  87 CALM      30.32S
RAWLINS        CLOUDY    37  33  85 NE5       30.34R WCI  33
SARATOGA       FAIR      34  32  93 W8        30.33R WCI  27
LARAMIE        CLOUDY    36  30  79 SE6       30.35R WCI  31
CHEYENNE       CLOUDY    39  36  89 NE5       30.36S
TORRINGTON     CLOUDY    43  40  89 CALM      30.35S
PINE BLUFFS    CLOUDY    41  39  93 N3        30.37S

$$


USA.gov is the U.S. government's official web portal to all federal, state and local government web resources and services.